Regional Weather Roundup
Issued by NWS

Home | Current Version | Previous Version | Graphics & Text | Print | Product List | Glossary On
Versions: 1 2 3 4 5 6 7 8 9 10 11 12 13 14 15 16 17 18 19 20 21 22 23 24 25 26 27 28 29 30 31 32 33 34 35 36 37 38 39 40 41 42 43 44 45 46 47 48 49 50
000
ASUS45 KCYS 202310
RWRWY

WYOMING REGIONAL WEATHER ROUNDUP
NATIONAL WEATHER SERVICE CHEYENNE WY
500 PM MDT WED AUG 20 2014

NOTE:  "FAIR" INDICATES FEW OR NO CLOUDS BELOW 12,000 FEET
WITH NO SIGNIFICANT WEATHER AND/OR OBSTRUCTIONS TO VISIBILITY.

WYZ001-210000-
YELLOWSTONE NATIONAL PARK

CITY           SKY/WX    TMP DP  RH WIND       PRES   REMARKS
LK YELLOWSTONE   N/A     59  45  59 E3        30.11F
W YELLOWSTONE  NOT AVBL

$$
WYZ002>013-054>058-071-098>099-210000-
NORTHERN WYOMING

CITY           SKY/WX    TMP DP  RH WIND       PRES   REMARKS
JACKSON        MOSUNNY   61  46  59 S7        30.05S
CODY           MOSUNNY   72  48  43 CALM      29.93F
GREYBULL       MOSUNNY   82  42  24 NW13      29.83R
WORLAND        PTSUNNY   78  45  30 NW6       29.86R
SHERIDAN       MOSUNNY   81  45  28 N8        29.86S
BUFFALO        MOSUNNY   77  45  32 N13       29.93R
GILLETTE       MOSUNNY   80  46  30 N3        29.87S
HULETT         FAIR      81  45  28 MISG      29.86
NEWCASTLE      FAIR      82  41  23 MISG      29.84

$$
WYZ014>020-022>026-101>103-210000-
CENTRAL WYOMING

CITY           SKY/WX    TMP DP  RH WIND       PRES   REMARKS
BIG PINEY      PTSUNNY   68  40  35 N22G29    30.10R
PINEDALE       MOCLDY    64  37  36 W15G21    30.11R
DUBOIS         MOCLDY    63  37  39 N8        30.08R
LANDER         CLOUDY    67  46  47 W21G31    29.96R
RIVERTON       CLOUDY    79  36  21 NW9       29.93R
CASPER         PTSUNNY   84  34  16 W9        29.89F
DOUGLAS        PTSUNNY   82  43  25 NW6       29.88F

$$
WYZ021-027>030-104>119-210000-
SOUTHERN WYOMING

CITY           SKY/WX    TMP DP  RH WIND       PRES   REMARKS
EVANSTON       MOSUNNY   73  42  32 W18G24    30.09F
KEMMERER       MOCLDY    66  45  45 SW5       30.10F
FORT BRIDGER   MOCLDY    67  43  41 W10       30.13S
ROCK SPRINGS   LGT RAIN  62  43  49 W9        30.10S
DIXON          MOCLDY    72  50  45 SW13      30.11S
RAWLINS        CLOUDY    69  44  40 NW8G23    30.08R
SARATOGA       FAIR      66  46  48 MISG      30.10F
LARAMIE        LGT RAIN  63  50  62 W12       30.10S
CHEYENNE       LGT RAIN  72  51  47 N6        30.00R
TORRINGTON     MOSUNNY   86  47  25 W10       29.82S
PINE BLUFFS    MOCLDY    81  45  28 NW13      29.91S

$$


USA.gov is the U.S. government's official web portal to all federal, state and local government web resources and services.